Weather in Krasnolesye

Russia / Kaliningrad Oblast     54°23′39″N   22°22′34″E
temp.,
°C
wind,
m/s
gust,
m/s
humid.,
%
clouds,
%
prec.,
mm/h
press.,
hPa
HPBL,
m
11 may, tue
tue1123:00+15sse6157714 0.0 1017476
02:00+14sse71679100 0.0 1017434
05:00+13sse61581100 0.0 1017357
08:00+16sse7157240 0.0 1018605
11:00+20sse7125657 0.0 10171000
14:00+22se7105530 0.0 10161306
17:00+21se711635 0.0 10151143
20:00+17se715695 0.0 1015596
12 may, wed
wed1223:00+14se616655 0.0 1015544
02:00+12se615696 0.0 1015414
05:00+12se616765 0.0 1015399
08:00+16se6157127 0.0 1015596
11:00+20se812622 0.0 10141180
14:00+21se7105687 0.0 10141570
17:00+19ese68574 0.0 10131216
20:00+13ese410720 0.0 1013289
13 may, thu
thu1323:00+10ese410810 0.0 1013199
02:00+9se378697 0.0 1012113
05:00+8se228891 0.0 101026
08:00+12ene2373100 0.0 1008300
11:00+11sse1287100 0.9 1007264
14:00+11ssw3589100 1.3 1005355
17:00+10se3693100 0.9 1005293
20:00+9ese4993100 1.4 1004314
14 may, fri
fri1423:00+9ese5119398 0.3 1003357
02:00+9ese4109689 0.4 1003320
05:00+9ese3793100 0.0 1002328
08:00+11e3591100 0.0 1001502
11:00+11ene2296100 0.5 1002267
14:00+11se119669 1.1 1002163
17:00+15sw237498 0.3 1002946
20:00+13sse2388100 0.3 100353
15 may, sat
sat1523:00+11s3697100 0.1 1004117
02:00+9sw239764 0.1 100456
05:00+7w249936 0.0 1006101
08:00+10w458535 0.0 1007409
11:00+14w5669100 0.0 10081079
14:00+13w456998 0.1 10091110
17:00+14wnw356577 0.0 10091090
20:00+11sw118218 0.0 100910